User: anonymous   Login
Location: Bothwell
(42.3833°S, 147.0000°E)
Time: 05:19:40
(UTC+10:00)
Language:

NOAA 15 - Orbit

View from above orbital plane
View from above orbital plane
View from above satellite
View from above satellite

Ground track
Ground track

The orbit data is extracted from the following two-line orbital elements,

1 25338U 98030A   22267.55361718  .00000124  00000-0  69898-4 0  9997
2 25338  98.6383 295.7651 0010518  15.1327 345.0166 14.26173355267141
Epoch (UTC): 24 September 2022 13:17:12
Eccentricity: 0.0010518
inclination: 98.6383°
perigee height: 797 km
apogee height: 812 km
right ascension of ascending node: 295.7651°
argument of perigee: 15.1327°
revolutions per day: 14.26173355
mean anomaly at epoch: 345.0166°
orbit number at epoch: 26714

The dashed part of the orbit path shows where the satellite is in the earth's shadow,  

DLR